| time (UTC) | temp F | wind direction | speed MPH | gust MPH | rain 1hr in | rain 24hr in | rain mn in | humidity % | barometer mb |
| 20260906120047 | 76 | 215 | 1.0 | 3.0 | 0.00 | 0.00 | 0.00 | 84 | 1014.8 |
| 20260906114550 | 76 | 53 | 0.0 | 1.0 | 0.00 | 0.00 | 0.00 | 84 | 1014.6 |
| 20260906113046 | 77 | 0 | 1.0 | 4.0 | 0.00 | 0.00 | 0.00 | 84 | 1014.9 |
| 20260906111601 | 76 | 59 | 0.0 | 2.0 | 0.00 | 0.00 | 0.00 | 85 | 1014.8 |
| 20260906110045 | 76 | 49 | 0.0 | 2.0 | 0.00 | 0.00 | 0.00 | 86 | 1014.4 |
| 20260906104551 | 76 | 190 | 1.0 | 2.0 | 0.00 | 0.00 | 0.00 | 86 | 1014.2 |
| 20260906103045 | 76 | 64 | 0.0 | 5.0 | 0.00 | 0.00 | 0.00 | 86 | 1014.4 |
| 20260906101545 | 75 | 33 | 3.0 | 7.0 | 0.00 | 0.00 | 0.00 | 88 | 1014.2 |
| 20260906100048 | 75 | 56 | 1.0 | 2.0 | 0.00 | 0.00 | 0.00 | 88 | 1013.2 |
| 20260906094549 | 75 | 0 | 0.0 | 2.0 | 0.00 | 0.00 | 0.00 | 88 | 1013.3 |
| 20260906093047 | 76 | 0 | 0.0 | 0.0 | 0.00 | 0.00 | 0.00 | 87 | 1013.1 |
| 20260906091546 | 76 | 0 | 0.0 | 0.0 | 0.00 | 0.00 | 0.00 | 86 | 1013.0 |
| 20260906090054 | 77 | 0 | 0.0 | 0.0 | 0.00 | 0.00 | 0.00 | 84 | 1013.1 |
| 20260906084546 | 77 | 0 | 0.0 | 0.0 | 0.00 | 0.00 | 0.00 | 82 | 1013.0 |
| 20260906083050 | 78 | 0 | 0.0 | 2.0 | 0.00 | 0.00 | 0.00 | 83 | 1012.9 |
| 20260906081545 | 77 | 222 | 1.0 | 3.0 | 0.00 | 0.00 | 0.00 | 85 | 1013.0 |
| 20260906080046 | 75 | 198 | 3.0 | 4.0 | 0.00 | 0.00 | 0.00 | 88 | 1013.0 |
| 20260906074547 | 76 | 0 | 0.0 | 0.0 | 0.00 | 0.00 | 0.00 | 87 | 1013.0 |
| 20260906073046 | 76 | 0 | 0.0 | 0.0 | 0.00 | 0.00 | 0.00 | 87 | 1012.9 |
| 20260906071547 | 76 | 0 | 0.0 | 0.0 | 0.00 | 0.00 | 0.00 | 86 | 1012.8 |
| 20260906070044 | 76 | 0 | 0.0 | 0.0 | 0.00 | 0.00 | 0.00 | 86 | 1012.8 |
| 20260906064551 | 76 | 210 | 0.0 | 1.0 | 0.00 | 0.00 | 0.00 | 86 | 1012.8 |
| 20260906063055 | 76 | 0 | 0.0 | 0.0 | 0.00 | 0.00 | 0.00 | 86 | 1012.9 |
| 20260906061546 | 76 | 0 | 0.0 | 0.0 | 0.00 | 0.00 | 0.00 | 85 | 1013.1 |
| 20260906060052 | 77 | 0 | 0.0 | 0.0 | 0.00 | 0.00 | 0.00 | 85 | 1013.4 |
| 20260906054559 | 77 | 0 | 0.0 | 0.0 | 0.00 | 0.00 | 0.00 | 85 | 1013.5 |
| 20260906053045 | 77 | 0 | 0.0 | 1.0 | 0.00 | 0.00 | 0.00 | 85 | 1013.5 |
| 20260906051609 | 77 | 0 | 0.0 | 0.0 | 0.00 | 0.00 | 0.00 | 84 | 1013.6 |
| 20260906050054 | 77 | 0 | 0.0 | 0.0 | 0.00 | 0.00 | 0.00 | 83 | 1013.6 |
| 20260906044552 | 78 | 0 | 0.0 | 0.0 | 0.00 | 0.00 | 0.00 | 83 | 1013.6 |
| 20260906043046 | 78 | 0 | 0.0 | 0.0 | 0.00 | 0.00 | 0.00 | 82 | 1013.5 |
| 20260906041553 | 78 | 0 | 0.0 | 0.0 | 0.00 | 0.00 | 0.00 | 81 | 1013.4 |
| 20260906040125 | 79 | 0 | 0.0 | 0.0 | 0.00 | 0.00 | 0.00 | 79 | 1013.4 |
| 20260906034555 | 80 | 0 | 0.0 | 0.0 | 0.00 | 0.00 | 0.00 | 78 | 1013.3 |
| 20260906033101 | 80 | 0 | 0.0 | 0.0 | 0.00 | 0.00 | 0.00 | 77 | 1013.3 |
| 20260906031550 | 80 | 210 | 0.0 | 1.0 | 0.00 | 0.00 | 0.00 | 77 | 1013.2 |
| 20260906030047 | 81 | 210 | 0.0 | 1.0 | 0.00 | 0.00 | 0.00 | 77 | 1013.2 |
| 20260906024559 | 81 | 0 | 0.0 | 1.0 | 0.00 | 0.00 | 0.00 | 75 | 1013.1 |
| 20260906023101 | 82 | 0 | 0.0 | 1.0 | 0.00 | 0.00 | 0.00 | 75 | 1013.1 |
| 20260906021550 | 82 | 108 | 0.0 | 1.0 | 0.00 | 0.00 | 0.00 | 75 | 1013.0 |
| 20260906020052 | 82 | 0 | 0.0 | 0.0 | 0.00 | 0.00 | 0.00 | 75 | 1012.9 |
| 20260906014554 | 83 | 0 | 0.0 | 0.0 | 0.00 | 0.00 | 0.00 | 72 | 1012.9 |
| 20260906013053 | 84 | 0 | 0.0 | 0.0 | 0.00 | 0.00 | 0.00 | 71 | 1012.8 |
| 20260906011553 | 85 | 0 | 0.0 | 1.0 | 0.00 | 0.00 | 0.00 | 71 | 1012.5 |
| 20260906010045 | 86 | 0 | 0.0 | 0.0 | 0.00 | 0.00 | 0.00 | 69 | 1012.2 |
| 20260906004550 | 87 | 0 | 0.0 | 0.0 | 0.00 | 0.00 | 0.00 | 66 | 1012.0 |
| 20260906003044 | 89 | 0 | 0.0 | 0.0 | 0.00 | 0.00 | 0.00 | 64 | 1011.9 |
| 20260906001546 | 91 | 0 | 0.0 | 0.0 | 0.00 | 0.00 | 0.00 | 59 | 1012.0 |
| 20260906000053 | 94 | 0 | 0.0 | 0.0 | 0.00 | 0.00 | 0.00 | 58 | 1012.0 |
| 20260905234547 | 95 | 0 | 0.0 | 0.0 | 0.00 | 0.00 | 0.00 | 55 | 1012.2 |
| 20260905233055 | 96 | 0 | 0.0 | 1.0 | 0.00 | 0.00 | 0.00 | 53 | 1012.2 |
| 20260905231546 | 96 | 0 | 0.0 | 2.0 | 0.00 | 0.00 | 0.00 | 51 | 1012.2 |
| 20260905230045 | 97 | 83 | 0.0 | 3.0 | 0.00 | 0.00 | 0.00 | 51 | 1012.3 |
| 20260905224610 | 98 | 0 | 0.0 | 3.0 | 0.00 | 0.00 | 0.00 | 49 | 1012.2 |
| 20260905223048 | 99 | 49 | 1.0 | 4.0 | 0.00 | 0.00 | 0.00 | 48 | 1012.2 |
| 20260905221552 | 99 | 87 | 1.0 | 5.0 | 0.00 | 0.00 | 0.00 | 49 | 1012.3 |
| 20260905220044 | 99 | 79 | 2.0 | 6.0 | 0.00 | 0.00 | 0.00 | 48 | 1012.4 |
| 20260905214551 | 99 | 5 | 1.0 | 5.0 | 0.00 | 0.00 | 0.00 | 49 | 1012.3 |
| 20260905213044 | 99 | 91 | 1.0 | 7.0 | 0.00 | 0.00 | 0.00 | 50 | 1012.5 |
| 20260905211549 | 98 | 8 | 1.0 | 10.0 | 0.00 | 0.00 | 0.00 | 51 | 1012.5 |
| 20260905210053 | 99 | 67 | 4.0 | 9.0 | 0.00 | 0.00 | 0.00 | 48 | 1012.5 |
| 20260905204553 | 100 | 44 | 1.0 | 3.0 | 0.00 | 0.00 | 0.00 | 45 | 1012.6 |
| 20260905203047 | 101 | 352 | 1.0 | 4.0 | 0.00 | 0.00 | 0.00 | 42 | 1012.9 |
| 20260905201548 | 101 | 21 | 2.0 | 6.0 | 0.00 | 0.00 | 0.00 | 44 | 1013.2 |
| 20260905200046 | 101 | 66 | 1.0 | 5.0 | 0.00 | 0.00 | 0.00 | 44 | 1013.4 |
| 20260905194551 | 100 | 106 | 2.0 | 6.0 | 0.00 | 0.00 | 0.00 | 46 | 1013.6 |
| 20260905193044 | 100 | 70 | 2.0 | 5.0 | 0.00 | 0.00 | 0.00 | 46 | 1013.8 |
| 20260905191546 | 100 | 153 | 2.0 | 8.0 | 0.00 | 0.00 | 0.00 | 46 | 1013.9 |
| 20260905190052 | 99 | 84 | 4.0 | 9.0 | 0.00 | 0.00 | 0.00 | 48 | 1014.1 |
| 20260905184558 | 100 | 104 | 2.0 | 9.0 | 0.00 | 0.00 | 0.00 | 45 | 1014.4 |
| 20260905183047 | 99 | 342 | 0.0 | 6.0 | 0.00 | 0.00 | 0.00 | 47 | 1014.5 |
| 20260905181554 | 99 | 309 | 2.0 | 6.0 | 0.00 | 0.00 | 0.00 | 48 | 1014.5 |
| 20260905174546 | 98 | 39 | 3.0 | 8.0 | 0.00 | 0.00 | 0.00 | 49 | 1014.7 |
| 20260905173103 | 97 | 36 | 2.0 | 9.0 | 0.00 | 0.00 | 0.00 | 50 | 1014.8 |
| 20260905171555 | 96 | 119 | 1.0 | 5.0 | 0.00 | 0.00 | 0.00 | 52 | 1015.1 |
| 20260905164546 | 95 | 83 | 2.0 | 8.0 | 0.00 | 0.00 | 0.00 | 58 | 1015.6 |
| 20260905163054 | 95 | 77 | 2.0 | 5.0 | 0.00 | 0.00 | 0.00 | 57 | 1015.7 |
| 20260905161601 | 94 | 345 | 1.0 | 5.0 | 0.00 | 0.00 | 0.00 | 60 | 1015.8 |
| 20260905160049 | 94 | 57 | 2.0 | 4.0 | 0.00 | 0.00 | 0.00 | 59 | 1015.9 |
| 20260905154547 | 92 | 288 | 1.0 | 5.0 | 0.00 | 0.00 | 0.00 | 62 | 1015.9 |
| 20260905153045 | 92 | 212 | 0.0 | 6.0 | 0.00 | 0.00 | 0.00 | 61 | 1016.1 |
| 20260905151547 | 92 | 346 | 0.0 | 2.0 | 0.00 | 0.00 | 0.00 | 64 | 1016.1 |
| 20260905150048 | 91 | 162 | 1.0 | 4.0 | 0.00 | 0.00 | 0.00 | 66 | 1016.1 |
| 20260905144552 | 91 | 227 | 0.0 | 2.0 | 0.00 | 0.00 | 0.00 | 66 | 1016.0 |
| 20260905143047 | 90 | 162 | 1.0 | 2.0 | 0.00 | 0.00 | 0.00 | 69 | 1016.0 |
| 20260905141545 | 88 | 89 | 0.0 | 1.0 | 0.00 | 0.00 | 0.00 | 72 | 1016.0 |
| 20260905140053 | 87 | 0 | 0.0 | 2.0 | 0.00 | 0.00 | 0.00 | 74 | 1016.0 |
| 20260905134555 | 86 | 86 | 0.0 | 1.0 | 0.00 | 0.00 | 0.00 | 76 | 1015.9 |
| 20260905133045 | 84 | 0 | 0.0 | 1.0 | 0.00 | 0.00 | 0.00 | 79 | 1016.0 |
| 20260905131544 | 80 | 0 | 0.0 | 2.0 | 0.00 | 0.00 | 0.00 | 85 | 1016.1 |
| 20260905130052 | 76 | 0 | 0.0 | 1.0 | 0.00 | 0.00 | 0.00 | 91 | 1016.0 |
| 20260905124552 | 75 | 0 | 0.0 | 1.0 | 0.00 | 0.00 | 0.00 | 93 | 1016.1 |
| 20260905123057 | 74 | 0 | 0.0 | 0.0 | 0.00 | 0.00 | 0.00 | 93 | 1016.0 |
| 20260905121552 | 73 | 0 | 0.0 | 0.0 | 0.00 | 0.00 | 0.00 | 93 | 1015.9 |